Pittsburgh Allegheny Co., PA

8:56 AM EDT on September 24, 2017 (GMT -0400)
Allegheny County

Weather History for KAGC - April, 2013

Change the Weather History Date:

Tuesday, April 2, 2013

  Actual Average Record
Temperature  
Mean Temperature 30 °F -  
Max Temperature 39 °F 57 °F 75 °F (2003)
Min Temperature 24 °F 37 °F 24 °F (2013)
Degree Days  
Heating Degree Days 34    
Moisture  
Dew Point 14 °F    
Average Humidity 54    
Maximum Humidity 86    
Minimum Humidity 33    
Precipitation  
Precipitation 0.00 in - - ()
Sea Level Pressure  
Sea Level Pressure 30.13 in    
Wind  
Wind Speed 7 mph (WNW)    
Max Wind Speed 17 mph    
Max Gust Speed 28 mph    
Visibility 9 miles    
Events Snow    
Averages and records for this station are not official NWS values.
T = Trace of Precipitation, MM = Missing Value Source: NWS Daily Summary

Daily Weather History Graph

Daily Weather History Graph

Search for Another Location

Airport or City:

Trip Planner

Search our weather history database for the weather conditions in past years. The results will help you decide how hot, cold, wet, or windy it might be!

Date:

Astronomy

Apr. 02, 2013 Rise Set
Actual Time 7:01 AM EDT 7:45 PM EDT
Civil Twilight 6:34 AM EDT 8:13 PM EDT
Nautical Twilight 6:01 AM EDT 8:45 PM EDT
Astronomical Twilight 5:27 AM EDT 9:19 PM EDT
Moon 1:49 AM EDT (4/2) 11:50 AM EDT (4/2)
Length of Visible Light 13h 39m
Length of Day
12h 44m
Waning Gibbous, 56% of the Moon is Illuminated
Apr 2
Waning Gibbous
Apr 3
Last Quarter
Apr 10
New
Apr 18
First Quarter
Apr 25
Full

Hourly Weather History & Observations

Time (EDT) Temp. Windchill Dew Point Humidity Pressure Visibility Wind Dir Wind Speed Gust Speed Precip Events Conditions
12:53 AM 30.9 °F 25.2 °F 14.0 °F 50% 30.05 in 10.0 mi WNW 5.8 mph - N/A   Clear
1:53 AM 30.0 °F 25.2 °F 14.0 °F 51% 30.05 in 10.0 mi WNW 4.6 mph - N/A   Clear
2:53 AM 28.9 °F 22.8 °F 15.1 °F 56% 30.05 in 10.0 mi WNW 5.8 mph - N/A   Clear
3:53 AM 28.0 °F 21.7 °F 15.1 °F 58% 30.05 in 10.0 mi WNW 5.8 mph - N/A   Clear
4:53 AM 28.0 °F 24.2 °F 16.0 °F 61% 30.06 in 10.0 mi West 3.5 mph - N/A   Overcast
5:53 AM 27.0 °F 23.0 °F 17.1 °F 66% 30.08 in 10.0 mi NNW 3.5 mph - N/A   Mostly Cloudy
6:38 AM 26.6 °F 15.2 °F 17.6 °F 69% 30.05 in 10.0 mi NNW 13.8 mph 18.4 mph N/A   Overcast
6:45 AM 26.6 °F 15.7 °F 17.6 °F 69% 30.05 in 8.0 mi NNW 12.7 mph 18.4 mph N/A   Overcast
6:53 AM 26.1 °F 17.6 °F 18.0 °F 71% 30.11 in 6.0 mi NNW 8.1 mph - 0.00 in Snow Light Snow
7:30 AM 26.6 °F 20.0 °F 19.4 °F 74% 30.08 in 10.0 mi NW 5.8 mph - 0.00 in   Overcast
7:37 AM 26.6 °F 19.1 °F 17.6 °F 69% 30.08 in 10.0 mi NW 6.9 mph - 0.00 in   Overcast
7:53 AM 26.1 °F 20.5 °F 19.9 °F 78% 30.15 in 2.0 mi NW 4.6 mph - 0.00 in Snow Light Snow
8:01 AM 24.8 °F 16.1 °F 21.2 °F 86% 30.10 in 1.2 mi WNW 8.1 mph - 0.00 in Snow Light Snow
8:23 AM 24.8 °F 16.9 °F 19.4 °F 80% 30.12 in 2.5 mi NW 6.9 mph - 0.00 in Snow Light Snow
8:31 AM 24.8 °F 19.1 °F 19.4 °F 80% 30.12 in 9.0 mi Variable 4.6 mph - 0.00 in Snow Light Snow
8:53 AM 26.1 °F 16.8 °F 19.0 °F 75% 30.18 in 10.0 mi West 9.2 mph - 0.00 in   Partly Cloudy
9:53 AM 28.9 °F 21.9 °F 15.1 °F 56% 30.18 in 10.0 mi NW 6.9 mph 18.4 mph N/A   Scattered Clouds
10:53 AM 30.0 °F 21.1 °F 10.9 °F 45% 30.19 in 10.0 mi NNW 10.4 mph 17.3 mph N/A   Scattered Clouds
11:53 AM 30.9 °F 22.8 °F 10.0 °F 42% 30.19 in 10.0 mi WNW 9.2 mph - N/A   Mostly Cloudy
12:53 PM 34.0 °F 25.5 °F 10.9 °F 38% 30.19 in 10.0 mi West 11.5 mph 26.5 mph N/A   Mostly Cloudy
1:53 PM 36.0 °F 28.0 °F 10.9 °F 36% 30.17 in 10.0 mi West 11.5 mph 19.6 mph N/A   Mostly Cloudy
2:53 PM 37.0 °F 28.1 °F 10.9 °F 34% 30.16 in 10.0 mi West 15.0 mph 23.0 mph N/A   Scattered Clouds
3:53 PM 37.0 °F 27.4 °F 10.9 °F 34% 30.14 in 10.0 mi NW 17.3 mph 27.6 mph N/A   Overcast
4:53 PM 37.9 °F 30.5 °F 10.9 °F 33% 30.14 in 10.0 mi WNW 11.5 mph 23.0 mph N/A   Scattered Clouds
5:53 PM 36.0 °F 27.5 °F 10.9 °F 36% 30.16 in 10.0 mi West 12.7 mph - N/A   Mostly Cloudy
6:53 PM 36.0 °F 27.5 °F 10.9 °F 36% 30.17 in 10.0 mi NNW 12.7 mph 18.4 mph N/A   Mostly Cloudy
7:53 PM 35.1 °F 30.1 °F 10.0 °F 35% 30.18 in 10.0 mi WNW 5.8 mph - N/A   Clear
8:53 PM 33.1 °F 27.7 °F 10.9 °F 40% 30.20 in 10.0 mi NW 5.8 mph - N/A   Clear
9:53 PM 33.1 °F 27.7 °F 10.9 °F 40% 30.21 in 10.0 mi WNW 5.8 mph - N/A   Partly Cloudy
10:53 PM 32.0 °F 26.4 °F 10.0 °F 40% 30.21 in 10.0 mi WNW 5.8 mph - N/A   Clear
11:53 PM 30.0 °F 21.7 °F 12.0 °F 47% 30.21 in 10.0 mi West 9.2 mph - N/A   Clear